Terug naar catalogus

SL-14 R/B

ActiefPO
NORAD 22784·ROCKET BODY·🇷🇺 Russia

Gelanceerd Aug 31, 1993 vanaf Plesetsk Cosmodrome

Loading…

Volgende Passages (komende 24 uur)

TLE

VersSource: Space-Track

Epoch: Sep 14, 2026, 08:57 UTC

1 22784U 93055C   26257.37339541  .00000016  00000-0  10039-5 0  9997
2 22784  82.5483 229.1278 0021442 336.0011 176.2127 13.83552640668051

Volg SL-14 R/B in realtime met AllMySat

Download on the App Store